Карточка аэропорта UWLW

Внимание!
Информация на этой странице в стадии наполнения.
Если вы не увидели какой-то информации, или заметили неточность - пожалуйста сообщите нам!
Спасибо!
Команда RU-STAFF
Название аэропортаВосточный
Название аэропорта (англ.)Vostochny
Превышение252 ft. (76.8 m.)
Координаты54°24', 48°48'
Высота перехода900m
Эшелон переходаQFE>=726mm:FL050; QFE<726:FL060
Коды ответчика6725-6727
Зона ОрВДСамара РПИ (UWWW)
Данные METARUWLW 210400Z 24003MPS CAVOK 18/05 Q1016 R20/CLRD60 NOSIG RMK QFE756/1009
Проноз погоды (TAF)UWLW 210200Z 2103/2203 26003MPS 9999 SCT033 TX24/2111Z TN10/2202Z TEMPO 2106/2109 29005G11MPS TEMPO 2109/2118 31007G14MPS -TSRA BKN020CB
NOTAMshow/hide NOTAM
AWOS   TABLE

Информация о ВПП

ВПП Длина ВПП (м.) Покрытие Курс ВПП Частота ILS
025000Железобетон20110.1
205000Железобетон200110.1

Диспетчерские позиции


Сценарии



Спутниковое изображение